カタログに戻る

DELTA 1 DEB

運用中SSO
NORAD 21439·DEBRIS·🇺🇸 United States

打ち上げ Jun 12, 1975 から Vandenberg Space Force Base

Loading…

次のパス (今後24時間)

TLE

最新Source: Space-Track

元期: Sep 14, 2026, 18:26 UTC

1 21439U 75052DX  26257.76826330  .00002578  00000-0  36630-2 0  9997
2 21439 100.0063 261.6008 0326994 196.5358 162.4898 13.37753713624813

AllMySatでDELTA 1 DEBをリアルタイム追跡

Download on the App Store